User: anonymous   Login
Location: Daytona Beach
(29.2106°N, 81.0231°W)
Time: 15:33:40
(UTC-04:00)
Language:

XW-2F - Orbit

View from above orbital plane
View from above orbital plane
View from above satellite
View from above satellite

Ground track
Ground track

The orbit data is extracted from the following two-line orbital elements,

1 40910U 15049M   21262.44452067  .00001858  00000-0  90886-4 0  9995
2 40910  97.4743 266.6928 0013628 196.1161 299.9769 15.19398828331994
Epoch (UTC): 19 September 2021 10:40:06
Eccentricity: 0.0013628
inclination: 97.4743°
perigee height: 498 km
apogee height: 517 km
right ascension of ascending node: 266.6928°
argument of perigee: 196.1161°
revolutions per day: 15.19398828
mean anomaly at epoch: 299.9769°
orbit number at epoch: 33199

The dashed part of the orbit path shows where the satellite is in the earth's shadow,  

DLR